Date,TemperatureHighF,TemperatureAvgF,TemperatureLowF,DewpointHighF,DewpointAvgF,DewpointLowF,HumidityHigh,HumidityAvg,HumidityLow,PressureMaxIn,PressureMinIn,WindSpeedMaxMPH,WindSpeedAvgMPH,GustSpeedMaxMPH,PrecipitationSumIn
2013-6-1,86.0,72.6,65.0,72.0,61.5,59.0,92,70,44,0.00,40.00,5,3,15,0.02
2013-6-2,72.0,67.1,60.0,68.0,60.3,-99.9,100,84,66,0.00,40.00,6,2,19,0.07
2013-6-3,70.0,60.7,52.0,67.0,60.3,52.0,100,99,89,0.00,40.00,5,2,11,0.32
2013-6-4,70.0,56.9,43.0,52.0,44.2,40.0,100,67,37,0.00,40.00,4,0,9,0.06
2013-6-5,74.0,62.3,54.0,60.0,50.9,41.0,100,67,52,0.00,40.00,1,0,4,0.00
2013-6-6,60.0,57.2,55.0,60.0,57.2,55.0,100,100,100,0.00,40.00,0,0,0,0.80
2013-6-7,62.0,59.9,58.0,62.0,59.9,58.0,100,100,100,0.00,40.00,0,0,0,0.65
2013-6-8,76.0,61.1,52.0,63.0,57.4,52.0,100,90,61,0.00,40.00,0,0,0,0.54
2013-6-9,74.0,64.3,57.0,70.0,63.1,57.0,100,96,75,0.00,40.00,0,0,0,0.00
2013-6-10,69.0,63.1,60.0,69.0,63.1,60.0,100,100,100,0.00,40.00,0,0,0,0.68
2013-6-11,70.0,62.0,58.0,65.0,61.7,58.0,100,99,84,0.00,40.00,0,0,0,0.17
2013-6-12,81.0,69.8,62.0,70.0,65.7,62.0,100,88,59,0.00,40.00,0,0,0,0.01
2013-6-13,74.0,63.4,55.0,72.0,63.0,55.0,100,99,88,0.00,40.00,0,0,0,1.14
2013-6-14,71.0,59.3,51.0,59.0,53.5,49.0,100,83,52,0.00,40.00,0,0,0,0.33
2013-6-15,76.0,62.9,53.0,63.0,53.2,47.0,100,75,40,0.00,40.00,0,0,0,0.01
2013-6-16,72.0,64.7,59.0,65.0,58.9,50.0,96,82,71,0.00,40.00,0,0,0,0.00
2013-6-17,80.0,69.1,62.0,70.0,64.0,61.0,100,86,57,0.00,40.00,0,0,0,0.00
2013-6-18,70.0,64.8,58.0,69.0,64.0,58.0,100,97,86,0.00,40.00,0,0,0,0.37
2013-6-19,69.0,60.3,54.0,66.0,59.2,54.0,100,97,74,0.00,40.00,0,0,0,0.44
2013-6-20,77.0,64.5,58.0,66.0,60.9,57.0,100,90,55,0.00,40.00,0,0,0,0.11
2013-6-22,83.0,75.7,66.0,65.0,61.4,57.0,87,62,50,0.00,40.00,5,3,11,0.00
2013-6-23,84.0,71.2,63.0,69.0,62.7,59.0,94,75,54,0.00,40.00,4,2,11,0.00
2013-6-24,84.0,72.8,65.0,69.0,62.9,56.0,86,72,54,0.00,40.00,3,1,9,0.00
2013-6-25,86.0,74.2,65.0,71.0,63.7,59.0,89,71,48,0.00,40.00,1,1,7,0.00
2013-6-26,81.0,70.8,64.0,69.0,64.7,61.0,94,81,66,0.00,40.00,2,1,5,0.00
2013-6-27,72.0,67.0,64.0,70.0,63.9,60.0,97,90,80,0.00,40.00,2,1,5,0.07
2013-6-28,80.0,66.8,60.0,70.0,62.7,56.0,98,87,62,0.00,40.00,4,1,10,0.06
2013-6-29,79.0,67.0,58.0,61.0,57.7,54.0,93,74,49,0.00,40.00,5,3,11,0.03
2013-6-30,83.0,69.1,63.0,70.0,62.6,56.0,100,81,54,0.00,40.00,2,1,5,0.14